Weather History for Spirit of St Louis, MO

Change the Weather History Date:

Sunday, June 24, 2012

  Actual Average Record
Temperature  
Mean Temperature 82 °F -  
Max Temperature 100 °F 83 °F 100 °F (2012)
Min Temperature 64 °F 62 °F 55 °F (2001)
Cooling Degree Days 17    
Growing Degree Days 32 (Base 50)    
Moisture  
Dew Point 61 °F    
Average Humidity 53    
Maximum Humidity 81    
Minimum Humidity 27    
Precipitation  
Precipitation 0.00 in - - ()
Sea Level Pressure  
Sea Level Pressure 29.91 in    
Wind  
Wind Speed 1 mph (SSW)    
Max Wind Speed 7 mph    
Max Gust Speed -    
Visibility 10 miles    
Events      
Averages and records for this station are not official NWS values.
T = Trace of Precipitation, MM = Missing Value Source: NWS Daily Summary

Daily Weather History Graph

Daily Weather History Graph

Search for Another Location

Airport:

Trip Planner

Search our weather history database for the weather conditions in past years. The results will help you decide how hot, cold, wet, or windy it might be!

Date:

Astronomy

Jun. 24, 2012 Rise Set
Actual Time 5:39 AM CDT 8:31 PM CDT
Civil Twilight 5:07 AM CDT 9:03 PM CDT
Nautical Twilight 4:27 AM CDT 9:43 PM CDT
Astronomical Twilight 3:41 AM CDT 10:29 PM CDT
Moon 10:41 AM CDT (6/24) 11:33 PM CDT (6/24)
Length of Visible Light 15h 55m
Length of Day
14h 51m
Waxing Crescent, 25% of the Moon is Illuminated
Jun 24
Waxing Crescent
Jun 26
First Quarter
Jul 3
Full
Jul 10
Last Quarter
Jul 18
New

Hourly Weather History & Observations

Time (CDT) Temp. Heat Index Dew Point Humidity Pressure Visibility Wind Dir Wind Speed Gust Speed Precip Events Conditions
12:54 AM 66.0 °F - 57.9 °F 75% 29.95 in 10.0 mi Calm Calm - N/A   Clear
1:54 AM 64.9 °F - 57.9 °F 78% 29.95 in 10.0 mi Calm Calm - N/A   Clear
2:54 AM 64.4 °F - 57.2 °F 77% 29.96 in 10.0 mi Calm Calm - N/A   Clear
3:54 AM 64.0 °F - 57.9 °F 80% 29.93 in 10.0 mi Calm Calm - N/A   Clear
4:54 AM 64.0 °F - 57.9 °F 80% 29.94 in 10.0 mi Calm Calm - N/A   Clear
5:54 AM 64.9 °F - 59.0 °F 81% 29.95 in 10.0 mi Calm Calm - N/A   Mostly Cloudy
6:54 AM 69.1 °F - 60.1 °F 73% 29.95 in 10.0 mi Calm Calm - N/A   Clear
7:54 AM 75.0 °F - 60.1 °F 60% 29.96 in 10.0 mi Calm Calm - N/A   Partly Cloudy
8:54 AM 82.0 °F 83.0 °F 62.1 °F 51% 29.96 in 10.0 mi Calm Calm - N/A   Partly Cloudy
9:54 AM 87.1 °F 86.7 °F 60.1 °F 40% 29.95 in 10.0 mi SW 5.8 mph - N/A   Clear
10:54 AM 90.0 °F 89.1 °F 59.0 °F 35% 29.94 in 10.0 mi WSW 6.9 mph - N/A   Mostly Cloudy
11:54 AM 91.9 °F 92.9 °F 63.0 °F 38% 29.97 in 10.0 mi North 4.6 mph - N/A   Mostly Cloudy
12:54 PM 93.9 °F 94.0 °F 61.0 °F 33% 29.94 in 10.0 mi South 6.9 mph - N/A   Mostly Cloudy
1:54 PM 96.1 °F 96.0 °F 60.1 °F 30% 29.91 in 10.0 mi Variable 3.5 mph - N/A   Scattered Clouds
2:54 PM 98.1 °F 97.7 °F 59.0 °F 27% 29.88 in 10.0 mi SSW 3.5 mph - N/A   Scattered Clouds
3:54 PM 99.0 °F 100.5 °F 62.1 °F 30% 29.86 in 10.0 mi Calm Calm - N/A   Partly Cloudy
4:54 PM 100.0 °F 101.2 °F 61.0 °F 28% 29.85 in 10.0 mi Variable 3.5 mph - N/A   Partly Cloudy
5:54 PM 99.0 °F 100.5 °F 62.1 °F 30% 29.84 in 10.0 mi ENE 6.9 mph - N/A   Clear
6:54 PM 96.1 °F 98.3 °F 64.0 °F 35% 29.83 in 10.0 mi East 3.5 mph - N/A   Partly Cloudy
7:54 PM 90.0 °F 93.6 °F 68.0 °F 48% 29.83 in 10.0 mi Calm Calm - N/A   Clear
8:54 PM 82.9 °F 85.8 °F 68.0 °F 60% 29.84 in 10.0 mi Calm Calm - N/A   Clear
9:54 PM 80.1 °F 82.7 °F 68.0 °F 67% 29.86 in 10.0 mi Calm Calm - N/A   Clear
10:54 PM 82.9 °F 84.4 °F 64.0 °F 53% 29.86 in 10.0 mi Variable 3.5 mph - N/A   Clear
11:54 PM 77.0 °F - 66.0 °F 69% 29.85 in 10.0 mi Calm Calm - N/A   Clear